STARLINK-37216, 68391

Orbit data source: Space-Track

STARLINK-37216, 68391 is a payload satellite owned by SpaceX/Seattle (US) in SSO that was launched on Thu, 26 Mar 2026 UTC via an FALCON 9 launch vehicle from the Air Force Western Test Range (AFWTR). Payload-class satellites include a variety of spacecraft equipped with specific instruments for various scientific and technological missions. These include communications satellites like Starlink; space stations such as the ISS; scientific satellites like the Hubble; Earth observation satellites from companies like Planet Labs, Umbra, and HawkEye 360; GPS; miniature CubeSats for education and research; and military/defense satellites.

Not visible in the next 10 days
Identifier
68391, 2026-063M
Orbit
SSO
Country
Flag of USUS
Related business
Manufacturer
SpaceX/Seattle
Mission
Operational spacecraft
Bus & Motor
STARLINK V2MO, Unknown motor
Mass
575 kg wet, ~530 kg dry
Launch date (UTC)
2026-03-26 (2 weeks ago)
Launch vehicle
FALCON 9
Launch site
Air Force Western Test Range (AFWTR)
Object type
Payload
Rocket body
Debris
Shape & HBR
Unknown shape, 17.7 m
Radar Cross Section
RCS unknown

Expand to show TLE details & history
Last TLE update: 6 hours ago

TLE from 6 hours ago
0 STARLINK-37216
1 68391U 26063M   26102.31397301  .00048666  00000-0  25353-3 0  9993
2 68391  97.2836 243.7374 0001321  95.5124 264.6295 15.80804083  2932
Epoch: 2026-04-12T07:32Z
TLE epoch observation values (Epoch: 2026-04-12T07:32:07.268Z)
Latitude
0.00001°
Longitude
-69.81359°
Altitude
331.424 km
Speed
7.71 km/s
True Right ascension
16h 14m 56s
True Declination
0° 00' 00"
Sunlit
Object was in full shadow at epoch
Visualization orbit readout
Latitude
Unknown
Longitude
Unknown
Altitude
Unknown
Speed
Unknown
Apparent Right ascension
Unknown
Apparent Declination
Unknown
Sunlit
N/A
Visualization observer readout
Local Sidereal Time
20:21:27
Azimuth
Unknown
Elevation
Unknown
Doppler factor
Unknown
Orbital elements
Apogee altitude
325.931 km
Perigee altitude
324.16 km
Semi-major axis
6,703.182 km
Eccentricity
0.00013
Inclination
97.2836°
RAAN
243.7374°
Arg. of periapsis
95.5124°
True anomaly
264.61443°
Mean anomaly
264.6295°
Eccentric anomaly
264.62196°
Mean motion
3.95477 °/min
Orbital period
91.03 mins
BSTAR
0.00025353
Loading maneuver chart data...
Computing Atmospheric mass density...
Loading historical data...
Loading historical data...
Loading historical data...
Loading historical data...
Loading historical data...
Loading historical data...
Loading historical data...

Documentation

Showing up to 5 results
|